When you browse on this site, cookies collect data to enhance your experience and personalize the content and advertising you see.
Visit our Privacy Policy to learn more. By continuing to use the site, you agree to this use of cookies and data.
EN

Hourly Weather Neshville

Today, 12 July, Sunday

Time Temperature Precipitation Wind Pressure Humidity
00:00 +27°C° 0.1 mm 2 mps 747 mmHg 75%
01:00 +26°C° 0 mm 2 mps 747 mmHg 76%
02:00 +26°C° 0 mm 2 mps 747 mmHg 78%
03:00 +25°C° 0 mm 3 mps 746 mmHg 79%
04:00 +25°C° 0.4 mm 3 mps 746 mmHg 78%
05:00 +25°C° 0.4 mm 3 mps 746 mmHg 77%
06:00 +25°C° 0.4 mm 3 mps 746 mmHg 77%
07:00 +27°C° 0.2 mm 3 mps 746 mmHg 74%
08:00 +29°C° 0.2 mm 3 mps 746 mmHg 72%
09:00 +30°C° 0.2 mm 3 mps 746 mmHg 69%
10:00 +33°C° 0.8 mm 4 mps 745 mmHg 65%
11:00 +34°C° 0.8 mm 4 mps 745 mmHg 60%
12:00 +35°C° 0.8 mm 5 mps 745 mmHg 55%
13:00 +35°C° 0.1 mm 5 mps 745 mmHg 56%
14:00 +35°C° 0.1 mm 5 mps 744 mmHg 56%
15:00 +35°C° 0.1 mm 5 mps 744 mmHg 57%
16:00 +34°C° 0.4 mm 4 mps 744 mmHg 63%
17:00 +32°C° 0.4 mm 4 mps 744 mmHg 69%
18:00 +30°C° 0.4 mm 4 mps 744 mmHg 75%
19:00 +29°C° 0 mm 3 mps 744 mmHg 78%
20:00 +28°C° 0 mm 3 mps 744 mmHg 80%
21:00 +27°C° 0 mm 2 mps 745 mmHg 82%
22:00 +26°C° 0 mm 2 mps 745 mmHg 83%
23:00 +25°C° 0 mm 2 mps 745 mmHg 84%

Tomorrow, 13 July, Monday

Time Temperature Precipitation Wind Pressure Humidity
00:00 +25°C° 0 mm 2 mps 746 mmHg 86%
01:00 +24°C° 0 mm 2 mps 746 mmHg 87%
02:00 +24°C° 0 mm 2 mps 746 mmHg 87%
03:00 +24°C° 0 mm 2 mps 746 mmHg 88%
04:00 +24°C° 0 mm 2 mps 746 mmHg 88%
05:00 +23°C° 0 mm 2 mps 747 mmHg 87%
06:00 +22°C° 0 mm 3 mps 747 mmHg 87%
07:00 +25°C° 0 mm 3 mps 747 mmHg 80%
08:00 +27°C° 0 mm 3 mps 748 mmHg 73%
09:00 +28°C° 0 mm 3 mps 748 mmHg 66%
10:00 +30°C° 0 mm 3 mps 748 mmHg 61%
11:00 +31°C° 0 mm 3 mps 748 mmHg 56%
12:00 +33°C° 0 mm 3 mps 748 mmHg 50%
13:00 +33°C° 0 mm 3 mps 748 mmHg 50%
14:00 +33°C° 0 mm 3 mps 747 mmHg 50%
15:00 +33°C° 0 mm 3 mps 747 mmHg 50%
16:00 +31°C° 0 mm 3 mps 747 mmHg 54%
17:00 +30°C° 0 mm 3 mps 748 mmHg 58%
18:00 +29°C° 0 mm 2 mps 748 mmHg 62%
19:00 +28°C° 0 mm 2 mps 748 mmHg 65%
20:00 +27°C° 0 mm 2 mps 748 mmHg 69%
21:00 +26°C° 0 mm 2 mps 749 mmHg 73%
22:00 +25°C° 0 mm 2 mps 748 mmHg 75%
23:00 +25°C° 0 mm 1 mps 748 mmHg 77%

Day after tomorrow, 14 July, Tuesday

Time Temperature Precipitation Wind Pressure Humidity
00:00 +24°C° 0 mm 1 mps 748 mmHg 79%
01:00 +24°C° 0 mm 1 mps 748 mmHg 80%
02:00 +23°C° 0 mm 1 mps 748 mmHg 81%
03:00 +23°C° 0 mm 1 mps 748 mmHg 82%
04:00 +23°C° 0 mm 1 mps 749 mmHg 81%
05:00 +24°C° 0 mm 1 mps 749 mmHg 79%
06:00 +22°C° 0 mm 0 mps 749 mmHg 78%
07:00 +26°C° 0 mm 1 mps 749 mmHg 71%
08:00 +28°C° 0 mm 1 mps 750 mmHg 63%
09:00 +30°C° 0 mm 1 mps 750 mmHg 55%
10:00 +32°C° 0 mm 1 mps 750 mmHg 49%
11:00 +33°C° 0 mm 1 mps 750 mmHg 43%
12:00 +34°C° 0 mm 1 mps 750 mmHg 37%
13:00 +34°C° 0 mm 1 mps 749 mmHg 38%
14:00 +35°C° 0 mm 2 mps 749 mmHg 39%
15:00 +35°C° 0 mm 2 mps 749 mmHg 40%
16:00 +34°C° 0 mm 2 mps 749 mmHg 44%
17:00 +32°C° 0 mm 2 mps 749 mmHg 49%
18:00 +31°C° 0 mm 1 mps 749 mmHg 54%
19:00 +29°C° 0 mm 1 mps 749 mmHg 57%
20:00 +28°C° 0 mm 1 mps 749 mmHg 59%
21:00 +27°C° 0 mm 1 mps 750 mmHg 61%
22:00 +26°C° 0 mm 1 mps 750 mmHg 63%
23:00 +26°C° 0 mm 1 mps 750 mmHg 64%

15 July, Wednesday

Time Temperature Precipitation Wind Pressure Humidity
00:00 +25°C° 0 mm 1 mps 749 mmHg 65%
01:00 +25°C° 0 mm 1 mps 749 mmHg 67%
02:00 +25°C° 0 mm 1 mps 749 mmHg 69%
03:00 +24°C° 0 mm 1 mps 749 mmHg 72%
04:00 +25°C° 0 mm 1 mps 750 mmHg 72%
05:00 +25°C° 0 mm 1 mps 750 mmHg 72%
06:00 +25°C° 0 mm 1 mps 750 mmHg 71%
07:00 +27°C° 0.1 mm 1 mps 750 mmHg 66%
08:00 +29°C° 0.1 mm 2 mps 750 mmHg 60%
09:00 +31°C° 0.1 mm 2 mps 750 mmHg 54%
10:00 +32°C° 0 mm 2 mps 750 mmHg 52%
11:00 +35°C° 0 mm 2 mps 750 mmHg 51%
12:00 +36°C° 0 mm 3 mps 750 mmHg 49%
13:00 +36°C° 0 mm 3 mps 749 mmHg 50%
14:00 +36°C° 0 mm 4 mps 749 mmHg 51%
15:00 +37°C° 0 mm 4 mps 748 mmHg 52%
16:00 +36°C° 0 mm 4 mps 748 mmHg 56%
17:00 +35°C° 0 mm 4 mps 748 mmHg 60%
18:00 +34°C° 0 mm 4 mps 748 mmHg 64%
19:00 +33°C° 0 mm 4 mps 748 mmHg 65%
20:00 +33°C° 0 mm 4 mps 748 mmHg 67%
21:00 +32°C° 0 mm 4 mps 749 mmHg 69%
22:00 +30°C° 0.1 mm 3 mps 749 mmHg 71%
23:00 +30°C° 0.1 mm 3 mps 749 mmHg 73%

16 July, Thursday

Time Temperature Precipitation Wind Pressure Humidity
00:00 +29°C° 0.1 mm 3 mps 749 mmHg 75%
01:00 +29°C° 0.3 mm 3 mps 749 mmHg 77%
02:00 +28°C° 0.3 mm 2 mps 749 mmHg 80%
03:00 +28°C° 0.3 mm 2 mps 749 mmHg 82%
04:00 +28°C° 0.2 mm 2 mps 749 mmHg 82%
05:00 +27°C° 0.2 mm 2 mps 750 mmHg 83%
06:00 +27°C° 0.2 mm 2 mps 750 mmHg 83%
07:00 +29°C° 0.2 mm 2 mps 750 mmHg 79%
08:00 +30°C° 0.2 mm 2 mps 751 mmHg 75%
09:00 +31°C° 0.2 mm 2 mps 751 mmHg 71%
10:00 +32°C° 0 mm 2 mps 751 mmHg 68%
11:00 +34°C° 0 mm 2 mps 751 mmHg 65%
12:00 +35°C° 0 mm 2 mps 751 mmHg 62%
13:00 +35°C° 0.3 mm 2 mps 751 mmHg 64%
14:00 +35°C° 0.3 mm 2 mps 750 mmHg 67%
15:00 +35°C° 0.3 mm 2 mps 750 mmHg 69%
16:00 +34°C° 0.6 mm 2 mps 750 mmHg 72%
17:00 +32°C° 0.6 mm 2 mps 750 mmHg 75%
18:00 +32°C° 0.6 mm 2 mps 750 mmHg 78%
19:00 +31°C° 0.3 mm 2 mps 751 mmHg 80%
20:00 +30°C° 0.3 mm 1 mps 751 mmHg 82%
21:00 +29°C° 0.3 mm 1 mps 752 mmHg 84%
22:00 +28°C° 0 mm 1 mps 751 mmHg 85%
23:00 +28°C° 0 mm 2 mps 751 mmHg 87%

17 July, Friday

Time Temperature Precipitation Wind Pressure Humidity
00:00 +28°C° 0 mm 2 mps 751 mmHg 88%
01:00 +27°C° 0 mm 1 mps 751 mmHg 88%
02:00 +27°C° 0 mm 1 mps 751 mmHg 89%
03:00 +27°C° 0 mm 1 mps 751 mmHg 89%
04:00 +27°C° 0.9 mm 1 mps 751 mmHg 89%
05:00 +27°C° 0.9 mm 1 mps 751 mmHg 89%
06:00 +27°C° 0.9 mm 1 mps 751 mmHg 89%
07:00 +29°C° 0.1 mm 1 mps 751 mmHg 82%
08:00 +30°C° 0.1 mm 1 mps 751 mmHg 76%
09:00 +32°C° 0.1 mm 1 mps 751 mmHg 69%
10:00 +34°C° 0.1 mm 1 mps 751 mmHg 64%
11:00 +35°C° 0.1 mm 1 mps 751 mmHg 59%
12:00 +36°C° 0.1 mm 1 mps 751 mmHg 54%
13:00 +36°C° 0.4 mm 1 mps 751 mmHg 55%
14:00 +35°C° 0.4 mm 1 mps 750 mmHg 55%
15:00 +36°C° 0.4 mm 2 mps 750 mmHg 56%
16:00 +35°C° 0.1 mm 1 mps 750 mmHg 59%
17:00 +34°C° 0.1 mm 1 mps 750 mmHg 61%
18:00 +34°C° 0.1 mm 1 mps 749 mmHg 64%
19:00 +32°C° 0 mm 1 mps 750 mmHg 68%
20:00 +31°C° 0 mm 1 mps 750 mmHg 72%
21:00 +30°C° 0 mm 1 mps 750 mmHg 77%
22:00 +29°C° 0 mm 1 mps 750 mmHg 78%
23:00 +29°C° 0 mm 1 mps 750 mmHg 79%
Show more